{"data":{"norad_id":68425,"epoch":"2026-05-24T20:41:30.106464Z","epoch_age_seconds":84361,"freshness":"FRESH","line1":"1 68425U 26067K   26144.86215401  .00004313  00000+0  21225-3 0  9995","line2":"2 68425  97.4573 103.7264 0003380  73.6574 286.5032 15.18518389  8408","mean_motion":15.18518389,"eccentricity":0.000338,"inclination_deg":97.4573,"raan_deg":103.7264,"arg_perigee_deg":73.6574,"mean_anomaly_deg":286.5032,"bstar":0.00021225,"rev_number":840,"period_min":94.829276380926,"perigee_km":507.98936385569,"apogee_km":512.64595920689,"semimajor_km":6888.4546615313,"source":"CELESTRAK","updated_at":"2026-05-25T13:38:07.812870Z"}}